Dubuque, IA

3:49 PM CDT on October 21, 2019 (GMT -0500)
Dubuque Regional

Weather History for KDBQ - August, 2019

Change the Weather History Date:

Tuesday, August 6, 2019

  Actual Average Record
Temperature  
Mean Temperature 73 °F 71 °F  
Max Temperature 82 °F 81 °F 97 °F (1947)
Min Temperature 63 °F 61 °F 49 °F (2004)
Degree Days  
Heating Degree Days 0 0  
Month to date heating degree days 0 0  
Since 1 June heating degree days 29 48  
Since 1 July heating degree days 0 8  
Cooling Degree Days 8 6  
Month to date cooling degree days 43 41  
Year to date cooling degree days 496 441  
Since 1 June cooling degree days 470 404  
Growing Degree Days 23 (Base 50)    
Moisture  
Dew Point 64 °F    
Average Humidity 77    
Maximum Humidity 100    
Minimum Humidity 54    
Precipitation  
Precipitation T in 0.14 in 1.74 in (2018)
Month to date precipitation 0.77 0.84  
Year to date precipitation 26.88 22.42  
Snow  
Snow 0.00 in 0.00 in - ()
Month to date snowfall 0.0 0.0  
Since 1 June snowfall 0.0 0.0  
Since 1 July snowfall 0.0 0.0  
Snow Depth 0.00 in    
Sea Level Pressure  
Sea Level Pressure 29.86 in    
Wind  
Wind Speed 5 mph (NW)    
Max Wind Speed 14 mph    
Max Gust Speed 19 mph    
Visibility 10 miles    
Events Rain , Thunderstorm    
T = Trace of Precipitation, MM = Missing Value Source: NWS Daily Summary

Daily Weather History Graph

Daily Weather History Graph

Search for Another Location

Airport or City:

Astronomy

Aug. 06, 2019 Rise Set
Actual Time 6:00 AM CDT 8:16 PM CDT
Civil Twilight 5:28 AM CDT 8:47 PM CDT
Nautical Twilight 4:50 AM CDT 9:26 PM CDT
Astronomical Twilight 4:07 AM CDT 10:08 PM CDT
Moon 12:33 PM CDT (8/6) 11:53 PM CDT (8/6)
Length of Visible Light 15h 18m
Length of Day
14h 16m
Waxing Crescent, 39% of the Moon is Illuminated
Aug 6
Waxing Crescent
Aug 7
First Quarter
Aug 15
Full
Aug 23
Last Quarter
Aug 30
New

Hourly Weather History & Observations

Time (CDT) Temp. Heat Index Dew Point Humidity Pressure Visibility Wind Dir Wind Speed Gust Speed Precip Events Conditions
12:15 AM 64.9 °F - - N/A% 29.84 in 5.0 mi SE 10.4 mph - 0.07 in Rain , Thunderstorm Rain
12:30 AM 64.9 °F - 64.9 °F 100% 29.85 in 6.0 mi SSE 8.1 mph - 0.11 in Rain Rain
12:53 AM 64.9 °F - 64.9 °F 100% 29.86 in 10.0 mi West 11.5 mph - 0.14 in Rain Light Rain
1:53 AM 64.9 °F - 64.9 °F 100% 29.82 in 10.0 mi SW 4.6 mph - 0.00 in   Mostly Cloudy
2:04 AM 64.9 °F - 64.9 °F 100% 29.85 in 10.0 mi WSW 9.2 mph - N/A   Mostly Cloudy
2:15 AM 64.9 °F - 64.9 °F 100% 29.85 in 10.0 mi WSW 8.1 mph - N/A   Overcast
2:30 AM 64.0 °F - 64.0 °F 100% 29.85 in 10.0 mi WSW 5.8 mph - N/A   Mostly Cloudy
2:42 AM 64.0 °F - 64.0 °F 100% 29.85 in 10.0 mi West 6.9 mph - N/A   Overcast
2:53 AM 64.9 °F - 64.9 °F 100% 29.83 in 10.0 mi West 6.9 mph - N/A   Overcast
3:53 AM 64.9 °F - 64.9 °F 100% 29.83 in 10.0 mi West 9.2 mph - N/A   Overcast
4:53 AM 64.9 °F - 64.0 °F 97% 29.85 in 10.0 mi West 8.1 mph - N/A   Overcast
5:53 AM 64.9 °F - 63.0 °F 93% 29.85 in 10.0 mi West 4.6 mph - N/A   Overcast
6:53 AM 66.0 °F - 64.0 °F 93% 29.86 in 10.0 mi Calm Calm - N/A   Overcast
7:32 AM 66.9 °F - 64.9 °F 93% 29.88 in 10.0 mi West 5.8 mph - N/A   Mostly Cloudy
7:53 AM 66.9 °F - 64.9 °F 93% 29.87 in 10.0 mi NW 6.9 mph - N/A   Overcast
8:02 AM 68.0 °F - 66.0 °F 93% 29.88 in 10.0 mi NW 8.1 mph - N/A   Overcast
8:53 AM 71.1 °F - 66.9 °F 87% 29.86 in 10.0 mi NW 6.9 mph - N/A   Scattered Clouds
9:19 AM 71.1 °F - 66.0 °F 84% 29.88 in 10.0 mi North 8.1 mph - N/A   Mostly Cloudy
9:49 AM 71.6 °F - 64.4 °F 78% 29.89 in 10.0 mi North 10.4 mph - N/A   Scattered Clouds
9:53 AM 71.1 °F - 66.0 °F 84% 29.87 in 10.0 mi North 8.1 mph - N/A   Scattered Clouds
10:53 AM 75.9 °F - 66.9 °F 74% 29.88 in 10.0 mi North 6.9 mph - N/A   Scattered Clouds
11:53 AM 77.0 °F - 66.0 °F 69% 29.89 in 10.0 mi NNE 8.1 mph - N/A   Clear
12:53 PM 79.0 °F - 64.0 °F 60% 29.88 in 10.0 mi North 3.5 mph - N/A   Clear
1:53 PM 80.1 °F 81.5 °F 63.0 °F 56% 29.87 in 10.0 mi NNE 5.8 mph - N/A   Partly Cloudy
2:53 PM 80.1 °F 81.7 °F 64.0 °F 58% 29.87 in 10.0 mi NNW 3.5 mph - N/A   Scattered Clouds
3:53 PM 80.1 °F 81.7 °F 64.0 °F 58% 29.86 in 10.0 mi NW 6.9 mph - N/A   Mostly Cloudy
4:53 PM 80.1 °F 81.7 °F 64.0 °F 58% 29.86 in 10.0 mi NW 6.9 mph - N/A   Partly Cloudy
5:53 PM 80.1 °F 81.5 °F 63.0 °F 56% 29.85 in 10.0 mi NW 11.5 mph - N/A   Clear
6:53 PM 78.1 °F - 64.0 °F 62% 29.85 in 10.0 mi NW 6.9 mph - N/A   Clear
7:53 PM 73.9 °F - 64.0 °F 71% 29.85 in 10.0 mi NW 4.6 mph - N/A   Clear
8:53 PM 70.0 °F - 64.0 °F 81% 29.85 in 10.0 mi WNW 3.5 mph - N/A   Clear
9:53 PM 66.9 °F - 63.0 °F 87% 29.86 in 10.0 mi Calm Calm - N/A   Clear
10:53 PM 64.9 °F - 62.1 °F 90% 29.87 in 10.0 mi Calm Calm - N/A   Clear
11:53 PM 64.9 °F - 62.1 °F 90% 29.87 in 10.0 mi Calm Calm - N/A   Clear